SCP
1 1 1 0 1 1 1 1 1 0 0 0 0 0 0 1 1 1 0 0 0 0 0 1 1 0 0 0 0 0 0 0
1 1 1 1 0 1 1 1 1 0 1 0 0 0 0 0 0 0 0 0 0 0 0 0 0 0 0 0 0 0 0 0
2 1 1 1 1 1 1 1 1 0 0 0 0 1 0 0 0 0 0 0 0 0 0 0 0 0 0 0 0 0 0 0
1 2 1 1 1 1 1 1 1 1 1 0 0 0 0 0 0 0 0 0 0 0 0 0 0 0 0 0 0 0 0 0
1 1 1 1 1 1 2 2 1 1 1 1 1 0 0 0 0 0 1 0 0 0 0 0 0 0 0 0 0 0 0 0
1 1 1 1 1 1 1 1 1 1 1 0 0 0 0 0 0 0 0 0 0 0 0 0 0 0 0 0 0 0 0 0
1 1 1 1 1 1 1 1 1 1 0 0 0 0 0 0 0 0 0 0 0 0 0 0 0 0 0 0 0 0 0 0
1 1 1 1 1 1 1 1 0 0 0 0 0 0 0 0 0 0 0 0 0 0 0 0 0 0 0 0 0 0 0 0
1 1 1 1 1 1 1 0 0 0 0 0 0 0 0 0 0 0 0 0 0 0 0 0 0 0 0 0 0 0 0 0
1 1 1 1 1 1 0 0 0 0 0 0 0 0 0 0 0 0 0 0 0 0 0 0 0 0 0 0 0 0 0 0
1 0 1 1 1 0 0 0 0 0 0 0 0 0 0 0 0 0 0 0 0 0 0 0 0 0 0 0 0 0 0 0
0 0 1 1 0 0 0 0 0 0 0 0 0 0 0 0 0 0 0 0 0 0 0 0 0 0 0 0 0 0 0 0
0 0 0 1 0 0 0 0 0 0 0 0 0 0 0 0 0 0 0 0 0 0 0 0 0 0 0 0 0 0 0 0
0 0 0 0 0 0 0 0 0 0 0 0 0 0 0 0 0 0 0 0 0 0 0 0 0 0 0 0 0 0 0 0
0 0 0 0 0 0 0 0 0 0 0 0 0 0 0 0 0 0 0 0 0 0 0 0 0 0 0 0 0 0 0 0
0 0 0 0 0 0 0 0 0 0 0 0 0 0 0 0 0 0 0 0 0 0 0 0 0 0 0 0 0 0 0 0
0 0 0 0 0 0 0 0 0 0 0 0 0 0 0 0 0 0 0 0 0 0 0 0 0 0 0 0 0 0 0 0
0 0 0 0 0 0 0 0 0 0 0 0 0 -0 -0 0 0 0 0 0 0 0 0 0 0 0 0 0 0 0 0 0
0 0 0 0 0 0 0 0 0 -0 -0 0 -0 -0 0 -0 -0 0 0 0 0 0 0 0 0 0 0 0 0 0 0 0
0 0 0 0 0 0 0 0 0 -0 -0 -0 -0 -0 -0 -0 -0 0 -0 0 0 0 0 0 0 0 0 0 0 0 0 0
Wind_Speed_500mb
28 24 22 24 29 35 38 41 42 42 44 44 44 45 47 54 43 46 41 30 34 35 37 40 47 44 41 40 39 37 30 29
35 28 26 27 30 35 40 42 42 42 45 44 49 53 54 57 54 46 47 38 30 34 39 45 49 46 43 40 39 38 27 26
41 35 31 31 31 35 40 45 45 45 44 48 49 52 59 55 59 66 50 49 44 41 46 47 49 46 42 37 33 27 27 23
44 39 35 35 37 37 38 40 46 50 53 49 51 54 55 57 65 60 48 45 55 49 54 47 49 48 44 39 31 27 23 20
48 43 39 39 37 39 43 47 47 49 51 52 52 50 55 57 55 54 49 50 56 56 54 51 55 47 44 39 28 27 22 22
51 47 42 39 36 37 43 47 49 53 51 52 54 55 51 50 61 58 50 56 64 63 59 60 49 48 43 33 27 26 23 23
55 51 45 42 40 37 43 46 48 44 44 49 51 55 55 54 52 45 59 60 64 71 65 62 52 42 36 33 30 27 27 25
59 57 50 43 40 39 45 43 42 43 42 47 46 51 59 55 47 47 59 65 82 70 66 59 46 39 36 34 29 25 29 28
62 62 53 46 38 36 44 45 43 45 42 44 50 59 74 59 51 47 56 50 63 66 59 51 43 41 37 33 27 28 30 30
60 63 55 48 41 38 37 44 47 44 44 44 46 61 74 69 58 54 63 67 63 60 54 46 45 43 38 33 28 28 29 30
60 63 56 50 47 38 38 38 47 47 48 48 49 56 62 69 70 59 63 72 73 65 56 47 46 44 39 35 30 28 28 26
53 58 57 54 48 39 40 37 47 49 50 51 50 53 51 54 61 66 71 75 71 67 64 51 48 46 42 36 33 28 28 30
55 60 58 59 53 47 47 43 45 49 55 55 54 56 59 56 70 72 73 82 77 75 72 56 53 51 45 37 29 26 29 26
58 64 62 62 52 47 48 46 41 37 39 44 53 57 59 65 63 79 82 83 83 81 83 66 58 56 53 43 29 24 29 33
60 67 66 62 50 46 36 36 35 39 38 39 42 46 54 64 72 73 101 87 90 92 92 78 67 60 54 44 27 24 33 33
57 65 62 60 53 46 36 33 39 29 37 33 29 34 41 49 74 74 75 91 88 78 94 85 62 65 56 51 35 29 44 25
52 64 61 60 50 39 35 32 29 25 29 29 23 19 15 17 51 62 70 95 89 76 86 84 70 67 61 55 41 33 33 30
60 71 69 58 50 40 35 34 30 30 32 33 23 15 15 17 37 66 61 81 81 85 84 84 74 64 64 61 51 46 41 34
68 75 71 60 47 40 37 30 28 35 36 35 36 26 25 20 30 62 65 56 52 64 69 70 85 79 74 61 55 48 40 40
65 73 71 61 48 41 38 31 30 37 40 40 34 27 32 33 30 35 42 52 48 55 47 53 74 75 74 74 72 65 58 57
Wind_Direction_500mb
209 210 212 214 215 216 217 218 216 218 223 214 211 203 199 198 194 197 192 201 210 202 198 194 188 184 180 178 175 162 155 154
215 214 218 216 216 214 215 218 219 219 223 214 208 207 210 199 199 219 199 195 217 213 207 193 192 185 183 181 179 172 163 156
217 216 218 220 219 219 217 217 217 217 223 223 214 212 211 218 225 212 207 207 207 219 211 199 194 188 185 183 177 171 164 164
218 216 217 216 219 221 216 224 222 217 220 221 222 216 225 215 199 206 208 235 209 210 213 200 193 185 182 179 166 174 171 170
219 218 215 217 219 219 215 222 224 223 222 221 222 221 216 212 211 213 234 211 198 197 206 193 187 176 181 172 180 173 190 185
229 224 217 220 221 224 229 227 229 228 226 226 223 218 212 208 214 208 222 210 199 196 196 193 180 177 179 178 179 177 183 187
229 228 221 224 223 228 233 232 234 235 230 228 223 222 215 201 201 210 209 211 210 192 191 185 176 172 174 182 178 181 180 179
229 229 223 226 222 234 236 231 233 234 230 229 228 222 203 201 211 219 219 219 206 193 187 183 175 174 178 179 179 178 175 171
223 227 224 225 222 231 231 229 229 231 229 226 224 222 213 214 220 225 215 201 184 185 185 179 173 175 180 180 178 176 173 169
219 223 224 226 222 231 229 226 222 225 224 224 226 225 219 222 227 232 217 206 200 190 180 177 176 179 174 181 178 173 174 171
215 220 221 225 225 230 228 230 217 216 223 223 226 223 230 234 235 216 215 208 195 197 191 183 181 178 177 179 178 175 171 178
209 215 217 222 220 225 221 224 216 217 220 223 225 226 230 226 222 219 216 205 198 192 192 184 183 178 179 175 179 176 178 184
206 214 213 219 212 218 216 213 214 219 224 227 232 233 235 228 221 224 224 210 203 194 191 185 180 179 175 169 172 177 188 189
209 214 216 216 211 220 217 216 217 222 227 230 233 237 237 236 232 222 224 206 203 194 193 188 186 181 179 174 170 183 199 200
214 213 210 211 205 215 202 213 224 222 221 227 228 237 236 236 233 211 214 210 206 198 200 189 183 184 188 188 175 194 190 207
212 207 201 204 205 208 198 209 213 218 223 232 230 249 242 234 236 224 215 203 204 203 198 196 188 187 189 195 205 199 191 190
200 200 194 199 202 193 195 201 202 208 221 218 234 222 237 225 223 226 215 209 209 206 201 196 195 193 191 195 200 200 198 209
197 196 195 195 196 190 194 199 201 205 215 212 218 213 190 187 224 219 209 212 206 199 200 197 197 197 200 199 200 199 204 208
194 194 192 192 185 189 196 192 200 200 208 206 215 207 202 192 206 211 200 198 192 202 199 207 211 211 217 206 205 205 213 224
190 192 190 187 180 188 196 187 196 197 203 205 209 212 216 213 204 197 197 188 186 192 189 212 218 222 227 228 232 233 231 231
Wind_Speed_850mb
28 24 22 24 29 35 38 41 42 42 44 44 44 45 47 54 43 46 41 30 34 35 37 40 47 44 41 40 39 37 30 29
35 28 26 27 30 35 40 42 42 42 45 44 49 53 54 57 54 46 47 38 30 34 39 45 49 46 43 40 39 38 27 26
41 35 31 31 31 35 40 45 45 45 44 48 49 52 59 55 59 66 50 49 44 41 46 47 49 46 42 37 33 27 27 23
44 39 35 35 37 37 38 40 46 50 53 49 51 54 55 57 65 60 48 45 55 49 54 47 49 48 44 39 31 27 23 20
48 43 39 39 37 39 43 47 47 49 51 52 52 50 55 57 55 54 49 50 56 56 54 51 55 47 44 39 28 27 22 22
51 47 42 39 36 37 43 47 49 53 51 52 54 55 51 50 61 58 50 56 64 63 59 60 49 48 43 33 27 26 23 23
55 51 45 42 40 37 43 46 48 44 44 49 51 55 55 54 52 45 59 60 64 71 65 62 52 42 36 33 30 27 27 25
59 57 50 43 40 39 45 43 42 43 42 47 46 51 59 55 47 47 59 65 82 70 66 59 46 39 36 34 29 25 29 28
62 62 53 46 38 36 44 45 43 45 42 44 50 59 74 59 51 47 56 50 63 66 59 51 43 41 37 33 27 28 30 30
60 63 55 48 41 38 37 44 47 44 44 44 46 61 74 69 58 54 63 67 63 60 54 46 45 43 38 33 28 28 29 30
60 63 56 50 47 38 38 38 47 47 48 48 49 56 62 69 70 59 63 72 73 65 56 47 46 44 39 35 30 28 28 26
53 58 57 54 48 39 40 37 47 49 50 51 50 53 51 54 61 66 71 75 71 67 64 51 48 46 42 36 33 28 28 30
55 60 58 59 53 47 47 43 45 49 55 55 54 56 59 56 70 72 73 82 77 75 72 56 53 51 45 37 29 26 29 26
58 64 62 62 52 47 48 46 41 37 39 44 53 57 59 65 63 79 82 83 83 81 83 66 58 56 53 43 29 24 29 33
60 67 66 62 50 46 36 36 35 39 38 39 42 46 54 64 72 73 101 87 90 92 92 78 67 60 54 44 27 24 33 33
57 65 62 60 53 46 36 33 39 29 37 33 29 34 41 49 74 74 75 91 88 78 94 85 62 65 56 51 35 29 44 25
52 64 61 60 50 39 35 32 29 25 29 29 23 19 15 17 51 62 70 95 89 76 86 84 70 67 61 55 41 33 33 30
60 71 69 58 50 40 35 34 30 30 32 33 23 15 15 17 37 66 61 81 81 85 84 84 74 64 64 61 51 46 41 34
68 75 71 60 47 40 37 30 28 35 36 35 36 26 25 20 30 62 65 56 52 64 69 70 85 79 74 61 55 48 40 40
65 73 71 61 48 41 38 31 30 37 40 40 34 27 32 33 30 35 42 52 48 55 47 53 74 75 74 74 72 65 58 57
Wind_Direction_850mb
209 210 212 214 215 216 217 218 216 218 223 214 211 203 199 198 194 197 192 201 210 202 198 194 188 184 180 178 175 162 155 154
215 214 218 216 216 214 215 218 219 219 223 214 208 207 210 199 199 219 199 195 217 213 207 193 192 185 183 181 179 172 163 156
217 216 218 220 219 219 217 217 217 217 223 223 214 212 211 218 225 212 207 207 207 219 211 199 194 188 185 183 177 171 164 164
218 216 217 216 219 221 216 224 222 217 220 221 222 216 225 215 199 206 208 235 209 210 213 200 193 185 182 179 166 174 171 170
219 218 215 217 219 219 215 222 224 223 222 221 222 221 216 212 211 213 234 211 198 197 206 193 187 176 181 172 180 173 190 185
229 224 217 220 221 224 229 227 229 228 226 226 223 218 212 208 214 208 222 210 199 196 196 193 180 177 179 178 179 177 183 187
229 228 221 224 223 228 233 232 234 235 230 228 223 222 215 201 201 210 209 211 210 192 191 185 176 172 174 182 178 181 180 179
229 229 223 226 222 234 236 231 233 234 230 229 228 222 203 201 211 219 219 219 206 193 187 183 175 174 178 179 179 178 175 171
223 227 224 225 222 231 231 229 229 231 229 226 224 222 213 214 220 225 215 201 184 185 185 179 173 175 180 180 178 176 173 169
219 223 224 226 222 231 229 226 222 225 224 224 226 225 219 222 227 232 217 206 200 190 180 177 176 179 174 181 178 173 174 171
215 220 221 225 225 230 228 230 217 216 223 223 226 223 230 234 235 216 215 208 195 197 191 183 181 178 177 179 178 175 171 178
209 215 217 222 220 225 221 224 216 217 220 223 225 226 230 226 222 219 216 205 198 192 192 184 183 178 179 175 179 176 178 184
206 214 213 219 212 218 216 213 214 219 224 227 232 233 235 228 221 224 224 210 203 194 191 185 180 179 175 169 172 177 188 189
209 214 216 216 211 220 217 216 217 222 227 230 233 237 237 236 232 222 224 206 203 194 193 188 186 181 179 174 170 183 199 200
214 213 210 211 205 215 202 213 224 222 221 227 228 237 236 236 233 211 214 210 206 198 200 189 183 184 188 188 175 194 190 207
212 207 201 204 205 208 198 209 213 218 223 232 230 249 242 234 236 224 215 203 204 203 198 196 188 187 189 195 205 199 191 190
200 200 194 199 202 193 195 201 202 208 221 218 234 222 237 225 223 226 215 209 209 206 201 196 195 193 191 195 200 200 198 209
197 196 195 195 196 190 194 199 201 205 215 212 218 213 190 187 224 219 209 212 206 199 200 197 197 197 200 199 200 199 204 208
194 194 192 192 185 189 196 192 200 200 208 206 215 207 202 192 206 211 200 198 192 202 199 207 211 211 217 206 205 205 213 224
190 192 190 187 180 188 196 187 196 197 203 205 209 212 216 213 204 197 197 188 186 192 189 212 218 222 227 228 232 233 231 231